Visibility
15.0 15.0 15.0 15.0 15.0 15.0 15.0 15.0 15.0 15.0 15.0 15.0 15.0 15.0 15.0 15.0 15.0 15.0 15.0 15.0 15.0 15.0 15.0 15.0 15.0 15.0 15.0
12.7 0.1 5.7 15.0 15.0 15.0 15.0 15.0 15.0 15.0 15.0 15.0 15.0 15.0 15.0 15.0 15.0 15.0 15.0 15.0 15.0 15.0 15.0 15.0 15.0 15.0 15.0
15.0 15.0 15.0 15.0 15.0 15.0 15.0 15.0 15.0 15.0 15.0 15.0 15.0 15.0 15.0 15.0 15.0 15.0 15.0 15.0 15.0 15.0 15.0 15.0 14.2 15.0 15.0
15.0 8.5 15.0 15.0 15.0 15.0 15.0 15.0 15.0 15.0 15.0 15.0 15.0 15.0 15.0 15.0 15.0 15.0 15.0 15.0 15.0 15.0 15.0 15.0 13.8 14.4 15.0
6.0 1.1 0.5 15.0 0.3 15.0 15.0 15.0 15.0 15.0 15.0 15.0 15.0 15.0 15.0 15.0 15.0 15.0 15.0 15.0 15.0 15.0 15.0 15.0 13.8 12.7 15.0
13.3 0.6 15.0 15.0 15.0 15.0 15.0 15.0 15.0 15.0 15.0 15.0 15.0 15.0 15.0 15.0 15.0 15.0 15.0 15.0 15.0 15.0 15.0 15.0 10.8 15.0 15.0
15.0 15.0 15.0 15.0 15.0 15.0 15.0 15.0 15.0 15.0 15.0 15.0 15.0 15.0 15.0 15.0 15.0 15.0 15.0 15.0 15.0 15.0 15.0 15.0 15.0 15.0 15.0
15.0 15.0 15.0 15.0 15.0 15.0 15.0 15.0 15.0 15.0 15.0 15.0 15.0 15.0 15.0 15.0 15.0 15.0 15.0 15.0 15.0 15.0 15.0 15.0 15.0 15.0 15.0
15.0 15.0 15.0 15.0 15.0 15.0 15.0 15.0 15.0 15.0 15.0 15.0 15.0 15.0 15.0 15.0 15.0 15.0 15.0 15.0 15.0 15.0 15.0 15.0 15.0 15.0 15.0
15.0 15.0 15.0 15.0 15.0 15.0 15.0 15.0 15.0 15.0 15.0 15.0 15.0 15.0 15.0 15.0 15.0 15.0 15.0 15.0 15.0 15.0 15.0 15.0 15.0 15.0 15.0
15.0 15.0 15.0 15.0 15.0 15.0 15.0 15.0 10.1 11.9 15.0 14.7 5.4 9.0 8.3 12.4 12.2 14.7 15.0 15.0 15.0 15.0 15.0 15.0 15.0 15.0 15.0
15.0 15.0 15.0 15.0 15.0 15.0 15.0 0.4 8.2 15.0 15.0 11.4 8.0 15.0 4.8 5.1 15.0 13.9 13.0 14.5 15.0 15.0 15.0 15.0 15.0 15.0 15.0
15.0 15.0 15.0 15.0 15.0 1.7 6.9 12.0 8.3 14.9 0.2 1.0 5.8 2.2 5.1 4.5 14.5 14.2 8.2 14.9 9.4 8.4 15.0 15.0 15.0 15.0 15.0
15.0 15.0 14.9 15.0 10.1 9.3 5.6 3.0 0.1 0.8 5.7 7.4 9.9 15.0 5.7 5.1 15.0 5.9 5.8 15.0 6.7 7.6 9.7 15.0 15.0 15.0 15.0
13.8 15.0 7.7 15.0 14.3 8.3 6.1 3.6 5.4 0.5 6.8 2.5 15.0 15.0 15.0 14.7 5.6 8.4 6.7 6.4 5.8 10.4 11.7 6.5 15.0 15.0 15.0
15.0 15.0 15.0 15.0 9.0 0.5 6.2 5.8 4.9 6.1 6.6 1.7 7.0 10.7 15.0 15.0 15.0 12.4 5.7 11.6 6.5 7.4 7.6 4.7 8.1 15.0 15.0
15.0 15.0 15.0 15.0 14.9 13.6 5.3 7.2 8.8 8.1 7.0 7.6 6.7 15.0 15.0 15.0 15.0 15.0 15.0 5.5 5.9 7.0 7.2 6.6 5.1 15.0 15.0